Weather History for EGJB - December, 2012

Change the Weather History Date:

Monday, December 10, 2012

  Actual Average Record
Temperature  
Mean Temperature 43 °F -  
Max Temperature 45 °F 46 °F 57 °F (1997)
Min Temperature 41 °F 42 °F 33 °F (2002)
Degree Days  
Heating Degree Days 22    
Moisture  
Dew Point 37 °F    
Average Humidity 75    
Maximum Humidity 81    
Minimum Humidity 64    
Precipitation  
Precipitation 0.00 in - - ()
Sea Level Pressure  
Sea Level Pressure 30.22 in    
Wind  
Wind Speed 9 mph ()    
Max Wind Speed 14 mph    
Max Gust Speed -    
Visibility 6.2 miles    
Events      
Averages and records for this station are not official NWS values.
T = Trace of Precipitation, MM = Missing Value Source: Averaged Metar Reports

Daily Weather History Graph

Daily Weather History Graph

Search for Another Location

Airport or City:

Trip Planner

Search our weather history database for the weather conditions in past years. The results will help you decide how hot, cold, wet, or windy it might be!

Date:

Astronomy

Dec. 10, 2012 Rise Set
Actual Time 7:55 AM GMT 4:11 PM GMT
Civil Twilight 7:17 AM GMT 4:48 PM GMT
Nautical Twilight 6:37 AM GMT 5:29 PM GMT
Astronomical Twilight 5:58 AM GMT 6:08 PM GMT
Moon 4:09 AM GMT (12/10) 1:59 PM GMT (12/10)
Length of Visible Light 9h 30m
Length of Day
8h 15m
Waning Crescent, 12% of the Moon is Illuminated
Dec 10
Waning Crescent
Dec 13
New
Dec 20
First Quarter
Dec 28
Full
Jan 5
Last Quarter

Hourly Weather History & Observations

Time (GMT) Temp. Windchill Dew Point Humidity Pressure Visibility Wind Dir Wind Speed Gust Speed Precip Events Conditions
12:00 AM 48 °F - 43 °F 77% 30.16 in 22 mi NW 12.7 mph - -   Partly Cloudy
3:50 AM 44.6 °F 38.1 °F 37.4 °F 76% 30.12 in 6.2 mi NNW 13.8 mph - N/A   Partly Cloudy
4:20 AM 44.6 °F 38.4 °F 39.2 °F 81% 30.15 in 6.2 mi NNW 12.7 mph - N/A   Partly Cloudy
4:50 AM 44.6 °F 38.8 °F 37.4 °F 76% 30.15 in 6.2 mi NNW 11.5 mph - N/A   Partly Cloudy
5:20 AM 44.6 °F 39.2 °F 37.4 °F 76% 30.15 in 6.2 mi North 10.4 mph - N/A   Partly Cloudy
5:50 AM 44.6 °F 38.8 °F 35.6 °F 71% 30.15 in 6.2 mi North 11.5 mph - N/A   Scattered Clouds
6:00 AM 44 °F - 36 °F 64% 30.18 in 31 mi North 11.5 mph - -   Partly Cloudy
6:20 AM 44.6 °F 38.8 °F 37.4 °F 76% 30.15 in 6.2 mi North 11.5 mph - N/A   Mostly Cloudy
6:50 AM 44.6 °F 39.2 °F 35.6 °F 71% 30.15 in 6.2 mi North 10.4 mph - N/A   Scattered Clouds
7:20 AM 44.6 °F 38.8 °F 35.6 °F 71% 30.18 in 6.2 mi North 11.5 mph - N/A   Scattered Clouds
7:50 AM 42.8 °F 37.0 °F 35.6 °F 76% 30.18 in 6.2 mi North 10.4 mph - N/A   Scattered Clouds
8:20 AM 42.8 °F 38.6 °F 35.6 °F 76% 30.21 in 6.2 mi North 6.9 mph - N/A   Scattered Clouds
8:50 AM 42.8 °F 38.0 °F 37.4 °F 81% 30.21 in 6.2 mi North 8.1 mph - N/A   Scattered Clouds
9:00 AM 44 °F - 36 °F 66% 30.23 in 31 mi North 8.1 mph - -   Partly Cloudy
9:20 AM 44.6 °F 40.2 °F 35.6 °F 71% 30.21 in 6.2 mi North 8.1 mph - N/A   Partly Cloudy
9:50 AM 44.6 °F 39.7 °F 37.4 °F 76% 30.21 in 6.2 mi North 9.2 mph - N/A   Partly Cloudy
10:20 AM 44.6 °F 39.7 °F 35.6 °F 71% 30.24 in 6.2 mi North 9.2 mph - N/A   Partly Cloudy
10:50 AM 44.6 °F 39.7 °F 37.4 °F 76% 30.24 in 6.2 mi North 9.2 mph - N/A   Scattered Clouds
11:20 AM 46.4 °F 41.9 °F 37.4 °F 71% 30.24 in 6.2 mi NNE 9.2 mph - N/A   Scattered Clouds
11:50 AM 44.6 °F 39.2 °F 37.4 °F 76% 30.24 in 6.2 mi North 10.4 mph - N/A   Partly Cloudy
12:00 PM 45 °F - 38 °F 67% 30.25 in 31 mi North 10.4 mph - -   Scattered Clouds
12:20 PM 44.6 °F 39.7 °F 37.4 °F 76% 30.21 in 6.2 mi North 9.2 mph - N/A   Partly Cloudy
12:50 PM 44.6 °F 40.2 °F 37.4 °F 76% 30.21 in 6.2 mi North 8.1 mph - N/A   Partly Cloudy
1:20 PM 44.6 °F 38.8 °F 37.4 °F 76% 30.21 in 6.2 mi North 11.5 mph - N/A   Partly Cloudy
1:50 PM 44.6 °F 39.7 °F 37.4 °F 76% 30.21 in 6.2 mi North 9.2 mph - N/A   Scattered Clouds
2:20 PM 44.6 °F 39.2 °F 37.4 °F 76% 30.21 in 6.2 mi North 10.4 mph - N/A   Scattered Clouds
2:50 PM 44.6 °F 39.7 °F 37.4 °F 76% 30.24 in 6.2 mi North 9.2 mph - N/A   Scattered Clouds
3:00 PM 44 °F - 37 °F 69% 30.26 in 31 mi North 9.2 mph - -   Partly Cloudy
3:20 PM 42.8 °F 37.0 °F 35.6 °F 76% 30.24 in 6.2 mi North 10.4 mph - N/A   Scattered Clouds
3:50 PM 42.8 °F 38.6 °F 35.6 °F 76% 30.24 in 6.2 mi North 6.9 mph - N/A   Partly Cloudy
4:20 PM 41.0 °F 37.1 °F 35.6 °F 81% 30.24 in 6.2 mi North 5.8 mph - N/A   Scattered Clouds
4:50 PM 41.0 °F 37.1 °F 35.6 °F 81% 30.24 in 6.2 mi North 5.8 mph - N/A   Partly Cloudy
5:20 PM 41.0 °F 37.1 °F 35.6 °F 81% 30.27 in 6.2 mi NNE 5.8 mph - N/A   Scattered Clouds
5:50 PM 41.0 °F 37.1 °F 35.6 °F 81% 30.27 in 6.2 mi NNE 5.8 mph - N/A   Scattered Clouds
6:00 PM 41 °F - 35 °F 73% 30.30 in 28 mi NNE 5.8 mph - -   Partly Cloudy
6:20 PM 41.0 °F 37.1 °F 35.6 °F 81% 30.27 in 6.2 mi North 5.8 mph - N/A   Scattered Clouds
6:50 PM 41.0 °F 36.4 °F 33.8 °F 76% 30.27 in 6.2 mi NNE 6.9 mph - N/A   Partly Cloudy
7:20 PM 41.0 °F 37.1 °F 35.6 °F 81% 30.27 in 6.2 mi NNE 5.8 mph - N/A   Scattered Clouds
7:50 PM 42.8 °F 37.5 °F 35.6 °F 76% 30.30 in 6.2 mi NNE 9.2 mph - N/A   Mostly Cloudy
8:20 PM 42.8 °F 37.0 °F 35.6 °F 76% 30.30 in 6.2 mi NNE 10.4 mph - N/A   Scattered Clouds
8:50 PM 41.0 °F 36.4 °F 35.6 °F 81% 30.30 in 6.2 mi NNE 6.9 mph - N/A   Scattered Clouds
9:00 PM 42 °F - 35 °F 68% 30.33 in 28 mi NNE 6.9 mph - -   Partly Cloudy